| Date | Time | Temp. (oF) | Dew Point (oF) | Rel. Hum. (%) | Press. (in.) | Wind Dir. | Wind Speed (mph) | Hourly Rainfall (in.) |
|
|---|---|---|---|---|---|---|---|---|---|
| 1 | 01/22 | 00:00 | 5 | -3 | 66 | 30.33 | NE | 6 | 0.00 |
| 2 | 01/21 | 23:00 | 7 | -1 | 66 | 30.33 | NNE | 3 | 0.00 |
| 3 | 01/21 | 22:00 | 9 | -2 | 58 | 30.34 | NE | 4 | 0.00 |
| 4 | 01/21 | 21:00 | 10 | -2 | 57 | 30.32 | NNW | 5 | 0.00 |
| 5 | 01/21 | 20:00 | 11 | -2 | 55 | 30.32 | WNW | 2 | 0.00 |
| 6 | 01/21 | 19:00 | 12 | -1 | 54 | 30.30 | NW | 2 | 0.00 |
| 7 | miss | miss | miss | miss | miss | miss | miss | miss | |
| 8 | 01/21 | 18:31 | 12 | -1 | 53 | 30.29 | NW | 4 | 0.00 |
| 9 | miss | miss | miss | miss | miss | miss | miss | miss | |
| 10 | 01/21 | 18:29 | 12 | -1 | 53 | 30.29 | NNW | 4 | 0.00 |
| 11 | miss | miss | miss | miss | miss | miss | miss | miss | |
| 12 | 01/21 | 18:27 | 12 | -1 | 53 | 30.29 | NNW | 3 | 0.00 |
| 13 | miss | miss | miss | miss | miss | miss | miss | miss | |
| 14 | 01/21 | 18:25 | 13 | 0 | 53 | 30.29 | NW | 4 | 0.00 |
| 15 | miss | miss | miss | miss | miss | miss | miss | miss | |
| 16 | 01/21 | 18:23 | 13 | 0 | 53 | 30.29 | NNW | 5 | 0.00 |
| 17 | miss | miss | miss | miss | miss | miss | miss | miss | |
| 18 | 01/21 | 18:21 | 13 | 0 | 53 | 30.29 | N | 4 | 0.00 |
| 19 | miss | miss | miss | miss | miss | miss | miss | miss | |
| 20 | 01/21 | 18:19 | 13 | 0 | 53 | 30.29 | NW | 4 | 0.00 |
| 21 | miss | miss | miss | miss | miss | miss | miss | miss | |
| 22 | 01/21 | 18:17 | 13 | 0 | 53 | 30.29 | NNW | 5 | 0.00 |
| 23 | miss | miss | miss | miss | miss | miss | miss | miss | |
| 24 | 01/21 | 18:15 | 13 | 0 | 53 | 30.29 | NW | 3 | 0.00 |
| 25 | miss | miss | miss | miss | miss | miss | miss | miss | |
| 26 | 01/21 | 18:14 | 13 | 0 | 53 | 30.28 | NNW | 5 | 0.00 |
| 27 | miss | miss | miss | miss | miss | miss | miss | miss | |
| 28 | 01/21 | 18:14 | 13 | 0 | 53 | 30.28 | NNW | 5 | 0.00 |
| 29 | miss | miss | miss | miss | miss | miss | miss | miss | |
| 30 | 01/21 | 18:14 | 13 | 0 | 53 | 30.28 | NNW | 5 | 0.00 |
| 31 | 01/21 | 18:00 | 13 | -1 | 52 | 30.27 | NW | 3 | 0.00 |
| 32 | 01/21 | 17:00 | 15 | -1 | 47 | 30.24 | NNW | 4 | 0.00 |
| 33 | 01/21 | 16:00 | 17 | 0 | 46 | 30.22 | NW | 7 | 0.00 |
| 34 | 01/21 | 15:00 | 17 | 0 | 46 | 30.22 | NNW | 10 | 0.00 |
| 35 | 01/21 | 14:00 | 17 | 0 | 48 | 30.22 | N | 12 | 0.00 |
| 36 | 01/21 | 13:00 | 15 | 0 | 52 | 30.23 | NNW | 6 | 0.00 |
| 37 | 01/21 | 12:00 | 14 | 1 | 57 | 30.24 | NNW | 8 | 0.00 |
| 38 | 01/21 | 11:00 | 13 | 1 | 60 | 30.25 | NW | 8 | 0.00 |
| 39 | 01/21 | 10:00 | 12 | 1 | 62 | 30.24 | NW | 7 | 0.00 |
| 40 | 01/21 | 09:00 | 12 | 3 | 68 | 30.21 | NW | 6 | 0.00 |
| 41 | 01/21 | 08:00 | 10 | 2 | 71 | 30.18 | NNW | 3 | 0.00 |
| 42 | 01/21 | 07:00 | 11 | 2 | 68 | 30.15 | NNW | 7 | 0.00 |
| 43 | 01/21 | 06:00 | 12 | 3 | 67 | 30.12 | NNW | 8 | 0.00 |
| 44 | 01/21 | 05:00 | 14 | 4 | 66 | 30.10 | N | 8 | 0.00 |
| 45 | 01/21 | 04:00 | 15 | 5 | 64 | 30.08 | NE | 6 | 0.00 |
| 46 | 01/21 | 03:00 | 17 | 6 | 64 | 30.07 | NE | 4 | 0.00 |
| 47 | 01/21 | 02:00 | 18 | 6 | 60 | 30.05 | N | 12 | 0.00 |
| 48 | 01/21 | 01:00 | 19 | 6 | 58 | 30.03 | N | 7 | 0.00 |
| 49 | 01/21 | 00:00 | 20 | 8 | 60 | 30.03 | N | 9 | 0.00 |
| 50 | 01/20 | 23:00 | 21 | 10 | 63 | 30.02 | NNE | 4 | 0.00 |
| 51 | 01/20 | 22:00 | 23 | 12 | 64 | 30.01 | NNW | 4 | 0.00 |
| 52 | 01/20 | 21:00 | 23 | 14 | 71 | 30.00 | NNE | 5 | 0.00 |
| 53 | 01/20 | 20:00 | 23 | 14 | 71 | 30.00 | NNW | 2 | 0.00 |
| 54 | 01/20 | 19:00 | 23 | 14 | 69 | 29.99 | NNW | 2 | 0.00 |
| 55 | 01/20 | 18:00 | 25 | 15 | 67 | 29.99 | WNW | 4 | 0.00 |
| 56 | 01/20 | 17:00 | 27 | 16 | 63 | 29.97 | WNW | 3 | 0.00 |
| 57 | 01/20 | 16:00 | 29 | 17 | 61 | 29.96 | NW | 5 | 0.00 |
| 58 | 01/20 | 15:00 | 29 | 17 | 61 | 29.95 | WNW | 9 | 0.00 |
| 59 | 01/20 | 14:00 | 30 | 17 | 60 | 29.95 | WNW | 6 | 0.00 |
| 60 | 01/20 | 13:00 | 30 | 18 | 62 | 29.97 | SW | 6 | 0.00 |
| 61 | 01/20 | 12:00 | 29 | 17 | 61 | 30.00 | W | 5 | 0.00 |
| 62 | 01/20 | 11:00 | 28 | 17 | 63 | 30.02 | WSW | 12 | 0.00 |
| 63 | 01/20 | 10:00 | 28 | 18 | 67 | 30.03 | WNW | 13 | 0.00 |
| 64 | 01/20 | 09:00 | 27 | 18 | 71 | 30.02 | WNW | 6 | 0.00 |
| 65 | 01/20 | 208:56 | 18 | 9 | 70 | 27.00 | 08:57 | 1 | 6.98 |
| 66 | 01/20 | 08:55 | 27 | 19 | 72 | 30.02 | WNW | 4 | 0.00 |
| 67 | miss | miss | miss | miss | miss | miss | miss | miss | |
| 68 | 01/20 | 08:53 | 27 | 19 | 72 | 30.02 | WNW | 7 | 0.00 |
| 69 | miss | miss | miss | miss | miss | miss | miss | miss | |
| 70 | 01/20 | 08:51 | 27 | 19 | 72 | 30.02 | WNW | 5 | 0.00 |
| 71 | miss | miss | miss | miss | miss | miss | miss | miss | |
| 72 | 01/20 | 08:49 | 27 | 19 | 72 | 30.02 | W | 4 | 0.00 |
| 73 | miss | miss | miss | miss | miss | miss | miss | miss | |
| 74 | 01/20 | 08:48 | 27 | 19 | 73 | 30.02 | WNW | 6 | 0.00 |
| 75 | miss | miss | miss | miss | miss | miss | miss | miss | |
| 76 | 01/20 | 08:48 | 27 | 19 | 73 | 30.02 | WNW | 6 | 0.00 |
| 77 | miss | miss | miss | miss | miss | miss | miss | miss | |
| 78 | 01/20 | 08:48 | 27 | 19 | 73 | 30.02 | WNW | 6 | 0.00 |
| 79 | miss | miss | miss | miss | miss | miss | miss | miss | |
| 80 | 01/20 | 08:48 | 27 | 19 | 73 | 30.02 | WNW | 6 | 0.00 |
| 81 | miss | miss | miss | miss | miss | miss | miss | miss | |
| 82 | 01/20 | 08:48 | 27 | 19 | 73 | 30.02 | WNW | 6 | 0.00 |
| 83 | miss | miss | miss | miss | miss | miss | miss | miss | |
| 84 | 01/20 | 08:48 | 27 | 19 | 73 | 30.02 | WNW | 6 | 0.00 |
| 85 | miss | miss | miss | miss | miss | miss | miss | miss | |
| 86 | 01/20 | 08:48 | 27 | 19 | 73 | 30.02 | WNW | 6 | 0.00 |
| 87 | miss | miss | miss | miss | miss | miss | miss | miss | |
| 88 | 01/20 | 08:48 | 27 | 19 | 73 | 30.02 | WNW | 6 | 0.00 |
| 89 | 01/20 | 08:00 | 26 | 20 | 79 | 30.00 | WNW | 6 | 0.01 |
| 90 | 01/20 | 07:00 | 26 | 23 | 89 | 29.98 | WSW | 10 | 0.00 |
| 91 | 01/20 | 06:00 | 25 | 23 | 92 | 29.96 | W | 6 | 0.00 |
| 92 | 01/20 | 05:00 | 24 | 22 | 94 | 29.95 | W | 1 | 0.00 |
| 93 | 01/20 | 04:00 | 23 | 21 | 95 | 29.94 | SW | 4 | 0.00 |
| 94 | 01/20 | 03:00 | 22 | 20 | 95 | 29.95 | SW | 2 | 0.00 |
| 95 | 01/20 | 02:00 | 22 | 21 | 97 | 29.95 | SSW | 6 | 0.01 |
| 96 | 01/20 | 01:00 | 20 | 19 | 97 | 29.96 | SW | 4 | 0.00 |
| 97 | 01/20 | 00:00 | 20 | 19 | 96 | 29.96 | NW | 2 | -0.02 |